Weather History for Sandberg, CA

Change the Weather History Date:

Thursday, February 7, 2013

  Actual Average Record
Temperature  
Mean Temperature 44 °F 43 °F  
Max Temperature 54 °F 49 °F 73 °F (1996)
Min Temperature 34 °F 38 °F 17 °F (1989)
Degree Days  
Heating Degree Days 21 22  
Month to date heating degree days 91 154  
Since 1 July heating degree days 1934 2319  
Cooling Degree Days 0 0  
Month to date cooling degree days 0 0  
Year to date cooling degree days 0 0  
Moisture  
Dew Point 24 °F    
Average Humidity 44    
Maximum Humidity 82    
Minimum Humidity 5    
Precipitation  
Precipitation 0.00 in 0.09 in 1.58 in (1976)
Month to date precipitation 0.01 0.53  
Year to date precipitation 1.33 2.94  
Since 1 July precipitation 2.70 6.79  
Sea Level Pressure  
Sea Level Pressure 29.98 in    
Wind  
Wind Speed 11 mph (West)    
Max Wind Speed 22 mph    
Max Gust Speed 32 mph    
Visibility 8 miles    
Events      
T = Trace of Precipitation, MM = Missing Value Source: NWS Daily Summary

Daily Weather History Graph

Daily Weather History Graph

Search for Another Location

Airport:

Trip Planner

Search our weather history database for the weather conditions in past years. The results will help you decide how hot, cold, wet, or windy it might be!

Date:

Astronomy

Feb. 07, 2013 Rise Set
Actual Time 6:48 AM PST 5:30 PM PST
Civil Twilight 6:21 AM PST 5:56 PM PST
Nautical Twilight 5:51 AM PST 6:26 PM PST
Astronomical Twilight 5:22 AM PST 6:56 PM PST
Moon 4:28 AM PST (2/7) 3:03 PM PST (2/7)
Length of Visible Light 11h 34m
Length of Day
10h 42m
Waning Crescent, 8% of the Moon is Illuminated
Feb 7
Waning Crescent
Feb 9
New
Feb 17
First Quarter
Feb 25
Full
Mar 4
Last Quarter

Hourly Weather History & Observations

Time (PST) Temp. Windchill Dew Point Humidity Pressure Visibility Wind Dir Wind Speed Gust Speed Precip Events Conditions
12:48 AM 50.0 °F - -18.0 °F 5% 30.04 in 10.0 mi NNW 10.4 mph - N/A   Clear
1:48 AM 52.0 °F - -16.1 °F 6% 30.03 in 10.0 mi NW 8.1 mph - N/A   Clear
2:48 AM 53.1 °F - -11.0 °F 7% 30.01 in 10.0 mi WNW 5.8 mph - N/A   Clear
3:48 AM 50.0 °F - -2.9 °F 11% 30.01 in 10.0 mi SSW 5.8 mph - N/A   Clear
4:48 AM 48.0 °F - 5.0 °F 17% 30.01 in 10.0 mi SSW 5.8 mph - N/A   Clear
5:48 AM 44.1 °F 41.5 °F 9.0 °F 24% 30.04 in 10.0 mi SSW 4.6 mph - N/A   Clear
6:48 AM 41.0 °F 34.7 °F 21.0 °F 45% 30.05 in 10.0 mi SSW 10.4 mph - N/A   Clear
7:48 AM 42.1 °F 36.6 °F 21.0 °F 43% 30.05 in 10.0 mi SSW 9.2 mph - N/A   Clear
8:48 AM 46.0 °F 40.6 °F 28.9 °F 51% 30.04 in 10.0 mi SSW 11.5 mph - N/A   Clear
9:48 AM 48.9 °F - 30.0 °F 48% 30.03 in 10.0 mi SSW 13.8 mph - N/A   Clear
10:48 AM 51.8 °F - 30.2 °F 44% 30.09 in 10.0 mi South 15.0 mph 20.7 mph N/A   Clear
11:48 AM 54.0 °F - 32.0 °F 43% 29.98 in 10.0 mi South 15.0 mph 25.3 mph N/A   Clear
12:48 PM 53.1 °F - 35.1 °F 50% 29.94 in 10.0 mi South 18.4 mph 26.5 mph N/A   Clear
1:48 PM 52.0 °F - 35.1 °F 53% 29.90 in 10.0 mi SSE 21.9 mph 31.1 mph N/A   Clear
2:48 PM 48.0 °F - 36.0 °F 63% 29.91 in 7.0 mi WSW 13.8 mph - N/A   Clear
3:37 PM 44.6 °F 38.8 °F 35.6 °F 71% 29.99 in 6.0 mi WNW 11.5 mph - N/A   Haze
3:48 PM 42.1 °F 36.1 °F 34.0 °F 73% 29.94 in 1.2 mi WNW 10.4 mph - N/A   Haze
3:51 PM 39.2 °F 30.5 °F 33.8 °F 81% 29.99 in 0.2 mi NW 16.1 mph - N/A   Haze
3:59 PM 39.2 °F 31.6 °F 33.8 °F 81% 30.00 in 0.2 mi NW 12.7 mph - N/A   Haze
4:13 PM 37.4 °F 29.8 °F 33.8 °F 87% 30.00 in 0.5 mi NW 11.5 mph - N/A   Haze
4:18 PM 37.4 °F 30.3 °F 33.8 °F 87% 30.00 in 1.5 mi NW 10.4 mph - N/A   Haze
4:22 PM 37.4 °F 29.8 °F 33.8 °F 87% 30.00 in 3.0 mi NW 11.5 mph - N/A   Haze
4:26 PM 39.2 °F 32.0 °F 33.8 °F 81% 30.00 in 5.0 mi NNW 11.5 mph - N/A   Haze
4:48 PM 39.0 °F 32.8 °F 32.0 °F 76% 29.94 in 7.0 mi NW 9.2 mph - N/A   Overcast
5:18 PM 39.2 °F 31.6 °F 30.2 °F 70% 29.98 in 9.0 mi NW 12.7 mph - N/A   Overcast
5:48 PM 37.9 °F 30.9 °F 30.9 °F 76% 29.94 in 10.0 mi NW 10.4 mph - N/A   Overcast
6:48 PM 37.0 °F 30.4 °F 30.9 °F 79% 29.94 in 7.0 mi NW 9.2 mph - N/A   Overcast
7:09 PM 37.4 °F 30.3 °F 30.2 °F 75% 29.97 in 8.0 mi WNW 10.4 mph - N/A   Mostly Cloudy
7:48 PM 36.0 °F 27.5 °F 30.0 °F 79% 29.94 in 8.0 mi NW 12.7 mph - N/A   Clear
8:48 PM 37.0 °F 28.5 °F 26.1 °F 65% 29.91 in 10.0 mi NW 13.8 mph - N/A   Partly Cloudy
9:48 PM 35.1 °F 29.3 °F 27.0 °F 72% 29.89 in 10.0 mi West 6.9 mph - N/A   Clear
10:23 PM 35.6 °F 30.7 °F 30.2 °F 81% 29.93 in 10.0 mi SSW 5.8 mph - N/A   Mostly Cloudy
10:32 PM 37.4 °F 32.8 °F 30.2 °F 75% 29.93 in 9.0 mi SW 5.8 mph - N/A   Overcast
10:36 PM 37.4 °F 33.8 °F 30.2 °F 75% 29.93 in 8.0 mi SSW 4.6 mph - N/A   Overcast
11:40 PM 35.6 °F - 30.2 °F 81% 29.92 in 5.0 mi Calm Calm - N/A   Haze
11:48 PM 35.1 °F 29.3 °F 30.0 °F 82% 29.86 in 6.0 mi NNW 6.9 mph - N/A   Haze